15 daagse weersverwachting Valencia (ES)

  • Overzicht
  • Per uur
  • 15 dagen
  • Extra
  • Vergelijk
  • Kaarten
  • Dagkaart
  • Meer »
  • Info
  • Statistieken
  • Directe link
    Temp 6h Neerslag Wind  
 07:47     20:25    Daglengte: 12:38 Vandaag
14:00
13°
18.1 mm
4
20:00
14°
21.3 mm
4
 07:45     20:26    Daglengte: 12:41 Morgen
02:00
12°
 
3
08:00
12°
 
2
14:00
17°
13.8 mm
2
20:00
14°
16.0 mm
3
 07:43     20:27    Daglengte: 12:44 Donderdag 02 Apr
02:00
12°
 
2
08:00
11°
 
3
14:00
15°
 
6
20:00
13°
10.3 mm
3
 07:42     20:28    Daglengte: 12:46 Vrijdag 03 Apr
02:00
11°
33.5 mm
2
08:00
10°
 
3
Locatie info
Region: Valenciana
Latitude: 39.4687°N
Longitude: -0.3769°E
23 masl
Postcode: 46002
Temp/Neerslag /Baro Onweer/Dauwpunt
    Temp Baro 1h Neerslag Dauwpunt Wind UV Bewolking  
 07:47     20:25    Daglengte: 12:38 Vandaag
12:00
11°
1010.1 hPa 9.0 mm
48%
9.9°
5
Windvlaag: -2.8 km/h
90%
13:00
12°
1009.6 hPa 3.9 mm
82%
10.5°
5
Windvlaag: -2.9 km/h
90%
14:00
13°
1009.4 hPa 5.2 mm
82%
11.1°
4
Windvlaag: -2.5 km/h
89%
15:00
13°
1009.2 hPa 4.8 mm
82%
11.5°
5
Windvlaag: -1.9 km/h
87%
16:00
13°
1008.7 hPa 4.1 mm
82%
11.5°
5
Windvlaag: -2.1 km/h
80%
17:00
14°
1008.4 hPa 4.1 mm
82%
11.6°
6
Windvlaag: -2.2 km/h
85% warningclass
18:00
14°
1008.5 hPa 4.1 mm
82%
11.4°
5
Windvlaag: -2.6 km/h
90% warningclass
19:00
14°
1008.8 hPa 4.1 mm
82%
11.2°
5
Windvlaag: -3.3 km/h
84%
20:00
14°
1009.2 hPa
82%
10.6°
4
Windvlaag: -3.6 km/h
71%
21:00
13°
1009.8 hPa
82%
10.2°
4
Windvlaag: -4 km/h
82%
22:00
13°
1010.4 hPa
33%
9.9°
5
Windvlaag: -4 km/h
64%
23:00
13°
1010.8 hPa
21%
9.8°
4
Windvlaag: -3.7 km/h
50%
 07:45     20:26    Daglengte: 12:41 Morgen
00:00
13°
1011.1 hPa
19%
9.6°
4
Windvlaag: -3.6 km/h
70%
01:00
13°
1011.0 hPa
61%
9.5°
3
Windvlaag: -3.2 km/h
71%
02:00
12°
1011.0 hPa
69%
9.5°
3
Windvlaag: -3.2 km/h
80%
03:00
12°
1010.8 hPa
65%
9.7°
3
Windvlaag: -3.3 km/h
74%
04:00
12°
1010.4 hPa
63%
10.2°
3
Windvlaag: -3.1 km/h
68%
05:00
12°
1010.3 hPa
33%
10.5°
3
Windvlaag: -3 km/h
58%
06:00
12°
1010.2 hPa
65%
10.5°
3
Windvlaag: -2.6 km/h
64%
07:00
12°
1010.3 hPa
29%
10.2°
2
Windvlaag: -2.5 km/h
80%
08:00
12°
1010.4 hPa
71%
9.9°
2
Windvlaag: -2.4 km/h
86%
09:00
12°
1010.9 hPa
33%
9.8°
2
Windvlaag: -2.3 km/h
84%
10:00
13°
1011.1 hPa 6.8 mm
22%
9.8°
2
Windvlaag: -1.4 km/h
77%
11:00
14°
1011.4 hPa 7.0 mm
21%
10.5°
2
Windvlaag: -0.2 km/h
63%
12:00
15°
1011.2 hPa
65%
10.6°
2
Windvlaag: -0.5 km/h
51%
13:00
17°
1010.8 hPa
77%
10.8°
2
Windvlaag: -0.6 km/h
31%
14:00
17°
1010.4 hPa
68%
10.9°
2
Windvlaag: -0.6 km/h
19%
15:00
18°
1009.8 hPa
32%
11.4°
3
Windvlaag: -0.3 km/h
19%
16:00
17°
1009.3 hPa 7.7 mm
22%
11.6°
4
Windvlaag: -0 km/h
32%
17:00
17°
1009.2 hPa 8.3 mm
20%
12.3°
3
Windvlaag: 0.2 km/h
45%
18:00
16°
1009.0 hPa
25%
12.6°
3
Windvlaag: 1.3 km/h
23%
19:00
15°
1009.5 hPa
61%
12.3°
3
Windvlaag: 1.3 km/h
20%
20:00
14°
1009.8 hPa
27%
12.2°
3
Windvlaag: 1.1 km/h
17%
21:00
13°
1010.3 hPa
21%
11.9°
3
Windvlaag: 0.7 km/h
22%
22:00
13°
1011.0 hPa
27%
11.5°
2
Windvlaag: 1.6 km/h
39%
23:00
13°
1011.4 hPa
34%
11.0°
2
Windvlaag: 1.2 km/h
52%
 07:43     20:27    Daglengte: 12:44 Donderdag 02 Apr
00:00
13°
1011.3 hPa
30%
10.6°
2
Windvlaag: 1.2 km/h
62%
01:00
12°
1011.1 hPa
32%
10.8°
2
Windvlaag: 1.2 km/h
80%
02:00
12°
1010.9 hPa
34%
10.8°
2
Windvlaag: 1.1 km/h
74%
03:00
12°
1010.4 hPa
70%
10.8°
2
Windvlaag: 1.1 km/h
82%
04:00
12°
1009.8 hPa
29%
9.9°
2
Windvlaag: 1.2 km/h
78%
05:00
12°
1009.6 hPa
37%
9.5°
2
Windvlaag: 1.6 km/h
94%
06:00
11°
1009.3 hPa
28%
9.2°
3
Windvlaag: 2 km/h
86%
07:00
11°
1009.3 hPa
21%
8.7°
3
Windvlaag: 2.2 km/h
70%
08:00
11°
1009.6 hPa
22%
8.3°
3
Windvlaag: 1.8 km/h
81%
09:00
11°
1009.9 hPa
22%
8.4°
4
Windvlaag: 1.3 km/h
55%
10:00
12°
1010.2 hPa
21%
8.7°
5
Windvlaag: 1 km/h
70%
11:00
14°
1010.5 hPa
22%
9.5°
5
Windvlaag: -0 km/h
81%
12:00
14°
1010.7 hPa
24%
9.6°
5
Windvlaag: -0.1 km/h
84%
13:00
15°
1010.5 hPa
28%
9.7°
5
Windvlaag: 0.1 km/h
69%
14:00
15°
1010.4 hPa
33%
9.9°
6
Windvlaag: 0.2 km/h
72%
15:00
15°
1010.1 hPa
82%
9.2°
6
Windvlaag: 0.5 km/h
89%
16:00
14°
1010.0 hPa
91%
9.6°
6
Windvlaag: 0.5 km/h
73%
17:00
14°
1010.0 hPa
97%
9.4°
5
Windvlaag: 1 km/h
68%
18:00
14°
1010.3 hPa
100%
9.8°
4
Windvlaag: 1.4 km/h
91%
19:00
13°
1010.9 hPa 5.1 mm
100%
9.7°
4
Windvlaag: 1.4 km/h
93%
20:00
13°
1011.5 hPa 5.2 mm
100%
9.3°
3
Windvlaag: 0.3 km/h
92%
21:00
12°
1012.2 hPa 5.2 mm
100%
9.1°
2
Windvlaag: -0 km/h
93%
22:00
12°
1013.0 hPa 7.0 mm
100%
9.2°
2
Windvlaag: 0.3 km/h
88%
23:00
12°
1013.6 hPa 6.9 mm
54%
9.6°
2
Windvlaag: 0.3 km/h
87%
 07:42     20:28    Daglengte: 12:46 Vrijdag 03 Apr
00:00
12°
1013.9 hPa 7.2 mm
42%
9.9°
1
Windvlaag: -0.2 km/h
89%
01:00
12°
1013.8 hPa 7.2 mm
37%
10.0°
1
Windvlaag: -0.1 km/h
88%
02:00
11°
1013.7 hPa
40%
10.2°
2
Windvlaag: -0.2 km/h
88%
03:00
11°
1013.9 hPa
36%
10.1°
2
Windvlaag: 6.6 km/h
80%
04:00
11°
1013.9 hPa
78%
9.6°
2
Windvlaag: 6.9 km/h
64%
05:00
11°
1014.1 hPa
73%
9.3°
2
Windvlaag: 8.1 km/h
56%
06:00
11°
1014.3 hPa
22%
9.0°
3
Windvlaag: 9.6 km/h
35%
07:00
11°
1014.5 hPa
21%
8.4°
3
Windvlaag: 9.9 km/h
32%
08:00
10°
1014.8 hPa
21%
8.2°
3
Windvlaag: 1.4 km/h
16%
09:00
11°
1015.0 hPa 43.0 mm
100%
7.7°
3
Windvlaag: 8 km/h
14%
10:00
12°
1015.4 hPa 43.0 mm
100%
7.7°
3
Windvlaag: 8.3 km/h
14%
11:00
13°
1015.8 hPa 43.1 mm
100%
7.5°
3
Windvlaag: 8.6 km/h
17%
Temp/Neerslag /Baro Onweer/Dauwpunt
    Temp Baro Neerslag Dauwpunt Wind Bewolking  
 07:47     20:25    Daglengte: 12:38 Vandaag
14:00
13°
1009.4 hPa 18.1 mm 11.1°
4
89%
17:00
14°
1008.4 hPa 13.0 mm 11.6°
6
85% warningclass
20:00
14°
1009.2 hPa 8.2 mm 10.6°
4
71%
23:00
13°
1010.8 hPa   9.8°
4
50%
 07:45     20:26    Daglengte: 12:41 Morgen
02:00
12°
1011.0 hPa   9.5°
3
80%
05:00
12°
1010.3 hPa   10.5°
3
58%
08:00
12°
1010.4 hPa   9.9°
2
86%
11:00
14°
1011.4 hPa 13.8 mm 10.5°
2
63%
14:00
17°
1010.4 hPa   10.9°
2
19%
17:00
17°
1009.2 hPa 16.0 mm 12.3°
3
45%
20:00
14°
1009.8 hPa   12.2°
3
17%
23:00
13°
1011.4 hPa   11.0°
2
52%
 07:43     20:27    Daglengte: 12:44 Donderdag 02 Apr
02:00
12°
1010.9 hPa   10.8°
2
74%
05:00
12°
1009.6 hPa   9.5°
2
94%
08:00
11°
1009.6 hPa   8.3°
3
81%
11:00
14°
1010.5 hPa   9.5°
5
81%
14:00
15°
1010.4 hPa   9.9°
6
72%
17:00
14°
1010.0 hPa   9.4°
5
68%
20:00
13°
1011.5 hPa 10.3 mm 9.3°
3
92%
23:00
12°
1013.6 hPa 19.1 mm 9.6°
2
87%
 07:42     20:28    Daglengte: 12:46 Vrijdag 03 Apr
02:00
11°
1013.7 hPa 14.4 mm 10.2°
2
88%
05:00
11°
1014.1 hPa   9.3°
2
56%
08:00
10°
1014.8 hPa   8.2°
3
16%
11:00
13°
1015.8 hPa 129.1 mm 7.5°
3
17%
14:00
17°
1017.1 hPa 129.5 mm 6.2°
3
22%
17:00
15°
1016.9 hPa 14.7 mm 7.3°
3
11%
20:00
14°
1016.8 hPa 14.7 mm 8.1°
2
5%
23:00
11°
1018.0 hPa 14.7 mm 7.9°
2
3%
 07:40     20:29    Daglengte: 12:49 Zaterdag 04 Apr
02:00
Voelt als: 8.4°
1019.1 hPa 14.7 mm 7.4°
2
1%
05:00
Voelt als: 7.2°
1019.0 hPa 14.7 mm 6.4°
2
0%
08:00
Voelt als: 5.9°
1019.1 hPa 14.7 mm 5.4°
2
0%
11:00
12°
1019.5 hPa 14.7 mm 7.4°
3
40%
14:00
17°
1020.0 hPa 14.7 mm 8.6°
4
81%
17:00
16°
1020.0 hPa 14.8 mm 10.2°
3
86%
20:00
14°
1020.1 hPa 14.9 mm 11.5°
3
90%
23:00
13°
1021.2 hPa 15.5 mm 11.0°
2
91%
 07:39     20:29    Daglengte: 12:50 Zondag 05 Apr
02:00
12°
1022.1 hPa 16.1 mm 10.4°
2
92%
05:00
12°
1022.2 hPa 16.3 mm 10.4°
2
86%
08:00
12°
1022.5 hPa 16.4 mm 10.4°
2
80%
11:00
14°
1023.2 hPa 16.5 mm 10.5°
3
75%
14:00
15°
1023.9 hPa 17.1 mm 10.5°
3
70%
17:00
15°
1023.6 hPa 17.1 mm 10.8°
3
41%
20:00
14°
1023.4 hPa 17.1 mm 11.2°
2
12%
23:00
12°
1024.5 hPa 17.1 mm 10.3°
2
49%
 07:37     20:30    Daglengte: 12:53 Maandag 06 Apr
02:00
10°
1025.5 hPa 17.2 mm 9.4°
2
86%
05:00
10°
Voelt als: 9.3°
1025.4 hPa 17.6 mm 8.5°
1
59%
08:00
Voelt als: 8.8°
1025.4 hPa 17.6 mm 7.5°
1
32%
11:00
13°
1026.1 hPa 17.6 mm 8.8°
2
61%
14:00
16°
1026.7 hPa 17.6 mm 9.5°
3
91%
17:00
15°
1026.3 hPa 17.6 mm 10.5°
3
91%
20:00
14°
1026.1 hPa 17.7 mm 11.0°
2
92%
23:00
13°
1026.8 hPa 17.7 mm 10.3°
2
90%
 07:36     20:31    Daglengte: 12:55 Dinsdag 07 Apr
02:00
12°
1027.5 hPa 17.8 mm 9.6°
2
89%
05:00
12°
1027.2 hPa 17.8 mm 9.7°
1
84%
08:00
13°
1027.0 hPa 17.9 mm 9.8°
1
79%
11:00
15°
1027.3 hPa   10.9°
3
85%
14:00
16°
1027.6 hPa 35.8 mm 12.1°
4
92%
20:00
15°
1025.6 hPa 35.8 mm 10.5°
2
4%
 07:34     20:32    Daglengte: 12:58 Woensdag 08 Apr
02:00
11°
1026.6 hPa 35.8 mm 9.7°
2
52%
08:00
12°
1024.9 hPa 35.8 mm 10.4°
1
92%
14:00
14°
1026.2 hPa 35.8 mm 12.2°
1
92%
20:00
14°
1026.5 hPa 37.5 mm 12.1°
2
83%
 07:33     20:33    Daglengte: 13:00 Donderdag 09 Apr
02:00
12°
1027.6 hPa 39.8 mm 11.7°
1
34%
08:00
11°
1025.7 hPa 40.1 mm 10.7°
1
92%
14:00
19°
1024.7 hPa 40.1 mm 13.8°
3
40%
20:00
16°
1021.6 hPa 40.3 mm 12.6°
1
85%
 07:31     20:34    Daglengte: 13:03 Vrijdag 10 Apr
02:00
14°
1020.4 hPa 40.3 mm 12.4°
1
0%
08:00
14°
1018.1 hPa 0.1 mm 10.3°
2
27%
14:00
19°
1018.4 hPa 0.1 mm 8.5°
1
27%
20:00
18°
1017.2 hPa 0.2 mm 10.6°
2
19%
 07:30     20:35    Daglengte: 13:05 Zaterdag 11 Apr
02:00
14°
1019.1 hPa   10.3°
2
24%
08:00
13°
1018.6 hPa   8.8°
3
23%
14:00
19°
1018.5 hPa   7.8°
1
23%
20:00
18°
1017.0 hPa   9.9°
2
24%
 07:28     20:36    Daglengte: 13:08 Zondag 12 Apr
02:00
14°
1019.2 hPa   9.7°
2
29%
08:00
13°
1019.1 hPa 0.3 mm 8.9°
2
35%
14:00
18°
1019.4 hPa 0.3 mm 7.2°
2
27%
20:00
17°
1017.9 hPa   9.6°
4
25%
 07:27     20:37    Daglengte: 13:10 Maandag 13 Apr
02:00
14°
1019.4 hPa   10.1°
2
30%
08:00
13°
1018.6 hPa   9.0°
2
24%
14:00
19°
1018.1 hPa   8.4°
1
23%
20:00
18°
1016.6 hPa 0.2 mm 10.3°
2
28%
 07:25     20:38    Daglengte: 13:13 Dinsdag 14 Apr
02:00
15°
1017.8 hPa   10.7°
1
24%
08:00
14°
1017.4 hPa 0.1 mm 9.6°
2
35%
14:00
19°
1017.4 hPa 0.4 mm 8.9°
2
32%
20:00
18°
1015.9 hPa 0.3 mm 10.6°
2
34%
 07:24     20:39    Daglengte: 13:15 Woensdag 15 Apr
02:00
15°
1017.1 hPa 0.1 mm 10.5°
2
30%
08:00
14°
1016.6 hPa 0.3 mm 9.4°
2
31%
  CAPE Lifted Index Hail Supercell Tornado SRH 3km CL BTM PRES CL TOP PRES Swiss DWD icon SMHI TS
 07:47     20:25    Daglengte: 12:38 Vandaag
12:00 45 J/kg 0.1 K 0 % 0 % 0 % 0 m²/s² 0 0 0.46 61
13:00 149 J/kg -0.8 K 0 % 0 % 0 % 0 m²/s² 0 0 0.1 61
14:00 409 J/kg -2.2 K 0 % 0 % 0 % 0 m²/s² 0 0 -0.7 63
15:00 610 J/kg -2.8 K 0 % 0 % 0 % 0 m²/s² 0 0 -1.51 61
16:00 644 J/kg -2.7 K 0 % 0 % 0 % 0 m²/s² 0 0 -1.65 61
17:00 638 J/kg -2.5 K 0 % 0 % 0 % 0 m²/s² 0 0 -1.45 95
18:00 578 J/kg -2.5 K 0 % 0 % 0 % 0 m²/s² 0 0 -1.84 95
19:00 647 J/kg -2.8 K 0 % 0 % 0 % 0 m²/s² 0 0 -1.93 61
20:00 530 J/kg -2.1 K 0 % 0 % 0 % 0 m²/s² 0 0 -0.42 80
21:00 459 J/kg -1.9 K 0 % 0 % 0 % 0 m²/s² 0 0 -0.37 3
22:00 389 J/kg -2.0 K 0 % 0 % 0 % 0 m²/s² 0 0 -0.74 3
23:00 216 J/kg -1.7 K 0 % 0 % 0 % 0 m²/s² 0 0 -0.29 2
 07:45     20:26    Daglengte: 12:41 Morgen
00:00 69 J/kg -1.1 K 0 % 0 % 0 % 0 m²/s² 0 0 0.25 2
01:00 33 J/kg -0.8 K 0 % 0 % 0 % 0 m²/s² 0 0 1.18 3
02:00 3 J/kg -0.9 K 0 % 0 % 0 % 0 m²/s² 0 0 0.51 3
03:00 15 J/kg -0.6 K 0 % 0 % 0 % 0 m²/s² 0 0 -0.06 3
04:00 18 J/kg -0.2 K 0 % 0 % 0 % 0 m²/s² 0 0 -0.11 3
05:00 43 J/kg 0.1 K 0 % 0 % 0 % 0 m²/s² 0 0 0.25 3
06:00 55 J/kg 0.1 K 0 % 0 % 0 % 0 m²/s² 0 0 0.19 3
07:00 26 J/kg 0.0 K 0 % 0 % 0 % 0 m²/s² 0 0 0.36 3
08:00 10 J/kg -0.7 K 0 % 0 % 0 % 0 m²/s² 0 0 -0.28 3
09:00 0 J/kg -1.1 K 0 % 0 % 0 % 0 m²/s² 0 0 -0.65 3
10:00 0 J/kg -1.1 K 0 % 0 % 0 % 0 m²/s² 0 0 -0.2 3
11:00 0 J/kg -0.2 K 0 % 0 % 0 % 0 m²/s² 0 0 1.36 3
12:00 60 J/kg -0.1 K 0 % 0 % 0 % 0 m²/s² 0 0 3.86 3
13:00 205 J/kg -0.9 K 0 % 0 % 0 % 0 m²/s² 0 0 4.08 3
14:00 308 J/kg -1.8 K 0 % 0 % 0 % 0 m²/s² 0 0 3.75 1
15:00 366 J/kg -2.1 K 0 % 0 % 0 % 0 m²/s² 0 0 3.63 2
16:00 413 J/kg -2.3 K 0 % 0 % 0 % 0 m²/s² 0 0 3.25 2
17:00 463 J/kg -2.4 K 0 % 0 % 0 % 0 m²/s² 0 0 3.66 2
18:00 501 J/kg -2.5 K 0 % 0 % 0 % 0 m²/s² 0 0 3.92 2
19:00 610 J/kg -3.0 K 0 % 0 % 0 % 0 m²/s² 0 0 2.88 2
20:00 493 J/kg -2.5 K 0 % 0 % 0 % 0 m²/s² 0 0 3.2 2
21:00 343 J/kg -2.0 K 0 % 0 % 0 % 0 m²/s² 0 0 2.83 2
22:00 299 J/kg -1.8 K 0 % 0 % 0 % 0 m²/s² 0 0 0.48 2
23:00 341 J/kg -2.3 K 0 % 0 % 0 % 0 m²/s² 0 0 -0.65 2
 07:43     20:27    Daglengte: 12:44 Donderdag 02 Apr
00:00 356 J/kg -2.1 K 0 % 0 % 0 % 0 m²/s² 0 0 -1.29 2
01:00 373 J/kg -2.0 K 0 % 0 % 0 % 0 m²/s² 0 0 -1.34 3
02:00 461 J/kg -2.3 K 0 % 0 % 0 % 0 m²/s² 0 0 -1.58 3
03:00 319 J/kg -1.9 K 0 % 0 % 0 % 0 m²/s² 0 0 -1.06 3
04:00 230 J/kg -1.6 K 0 % 0 % 0 % 0 m²/s² 0 0 -1.33 3
05:00 217 J/kg -1.8 K 0 % 0 % 0 % 0 m²/s² 0 0 -1.35 3
06:00 126 J/kg -1.9 K 0 % 0 % 0 % 0 m²/s² 0 0 -1.21 2
07:00 41 J/kg -2.0 K 0 % 0 % 0 % 0 m²/s² 0 0 -1.25 3
08:00 0 J/kg -1.7 K 0 % 0 % 0 % 0 m²/s² 0 0 -0.71 3
09:00 44 J/kg -1.7 K 0 % 0 % 0 % 0 m²/s² 0 0 -0.83 1
10:00 279 J/kg -1.5 K 0 % 0 % 0 % 0 m²/s² 0 0 -0.75 1
11:00 368 J/kg -1.6 K 0 % 0 % 0 % 0 m²/s² 0 0 -0.94 2
12:00 345 J/kg -1.5 K 0 % 0 % 0 % 0 m²/s² 0 0 -0.66 3
13:00 372 J/kg -1.6 K 0 % 0 % 0 % 0 m²/s² 0 0 -0.58 3
14:00 411 J/kg -1.7 K 0 % 0 % 0 % 0 m²/s² 0 0 -0.59 3
15:00 379 J/kg -1.7 K 0 % 0 % 0 % 0 m²/s² 0 0 -0.47 3
16:00 391 J/kg -1.6 K 0 % 0 % 0 % 0 m²/s² 0 0 -0.58 2
17:00 457 J/kg -2.0 K 0 % 0 % 0 % 0 m²/s² 0 0 -0.68 3
18:00 528 J/kg -2.2 K 0 % 0 % 0 % 0 m²/s² 0 0 -0.7 80
19:00 511 J/kg -2.1 K 0 % 0 % 0 % 0 m²/s² 0 0 -0.45 80
20:00 530 J/kg -2.2 K 0 % 0 % 0 % 0 m²/s² 0 0 -0.37 3
21:00 495 J/kg -1.9 K 0 % 0 % 0 % 0 m²/s² 0 0 -0.01 3
22:00 532 J/kg -1.9 K 0 % 0 % 0 % 0 m²/s² 0 0 -1.36 3
23:00 641 J/kg -2.2 K 0 % 0 % 0 % 0 m²/s² 0 0 -1.78 3
 07:42     20:28    Daglengte: 12:46 Vrijdag 03 Apr
00:00 620 J/kg -2.2 K 0 % 0 % 0 % 0 m²/s² 0 0 -1.84 2
01:00 461 J/kg -1.7 K 0 % 0 % 0 % 0 m²/s² 0 0 -0.71 3
02:00 420 J/kg -1.5 K 0 % 0 % 0 % 0 m²/s² 0 0 0.21 3
03:00 442 J/kg -1.4 K 0 % 0 % 0 % 0 m²/s² 0 0 1.36 3
04:00 234 J/kg -0.7 K 0 % 0 % 0 % 0 m²/s² 0 0 1.79 3
05:00 245 J/kg -1.0 K 0 % 0 % 0 % 0 m²/s² 0 0 1.01 2
06:00 310 J/kg -0.9 K 0 % 0 % 0 % 0 m²/s² 0 0 -0.12 2
07:00 16 J/kg 0.8 K 0 % 0 % 0 % 0 m²/s² 0 0 0.95 2
08:00 281 J/kg -1.1 K 0 % 0 % 0 % 0 m²/s² 0 0 -0.86 2
09:00 201 J/kg -0.7 K 0 % 0 % 0 % 0 m²/s² 0 0 0.47
10:00 196 J/kg -0.6 K 0 % 0 % 0 % 0 m²/s² 0 0 1.05
11:00 231 J/kg -0.4 K 0 % 0 % 0 % 0 m²/s² 0 0 0.98
Temp Baro Wind Neerslag
  EWN Forecast EWN WRFDA DWD ICON FMI HIRLAM MET Norway GFS
 07:47     20:25    Daglengte: 12:38 Vandaag
14:00 12.5° 1009.4 hPa 4.5 m/s 18.1 mm 14.0° 1007.4 hPa 3.5 m/s 45.3 mm 13.0° 1008.8 hPa 3.7 m/s 12.2 mm 12.4° 1009.2 hPa 7.1 m/s 0.0 mm 12.0° 1010.1 hPa 4.2 m/s 11.2° 1009.1 hPa 3.4 m/s
17:00 14.1° 1008.4 hPa 5.6 m/s 13.0 mm 15.8° 1006.7 hPa 5.2 m/s 51.5 mm 13.8° 1007.2 hPa 4.3 m/s 13.6 mm 14.7° 1008.3 hPa 6.6 m/s 0.0 mm 14.1° 1008.8 hPa 5.6 m/s 13.6° 1008.3 hPa 4.5 m/s
20:00 13.8° 1009.2 hPa 4.1 m/s 8.2 mm 14.5° 1007.5 hPa 1.8 m/s 51.8 mm 13.5° 1008.4 hPa 3.2 m/s 6.4 mm 14.1° 1009.1 hPa 7.0 m/s 0.0 mm 13.9° 1009.3 hPa 3.8 m/s 12.9° 1008.7 hPa 3.6 m/s
23:00 12.7° 1010.8 hPa 4.1 m/s 0.0 mm 12.3° 1009.8 hPa 3.4 m/s 51.8 mm 12.7° 1010.1 hPa 0.9 m/s 0.1 mm 13.9° 1010.8 hPa 6.7 m/s 0.0 mm 12.6° 1010.8 hPa 3.8 m/s 11.8° 1011.3 hPa 0.9 m/s
 07:45     20:26    Daglengte: 12:41 Morgen
02:00 12.4° 1011.0 hPa 2.9 m/s 0.0 mm 12.6° 1010.8 hPa 3.9 m/s 51.8 mm 12.4° 1010.5 hPa 0.8 m/s 0.1 mm 13.4° 1011.0 hPa 5.3 m/s 0.0 mm 12.2° 1010.9 hPa 1.2 m/s 11.3° 1011.6 hPa 1.6 m/s
05:00 12.1° 1010.3 hPa 2.7 m/s 0.0 mm 12.8° 1009.3 hPa 3.4 m/s 60.6 mm 13.1° 1009.7 hPa 1.7 m/s 0.1 mm 13.6° 1010.1 hPa 3.5 m/s 0.0 mm 9.9° 1010.5 hPa 1.6 m/s 11.8° 1010.3 hPa 2.2 m/s
08:00 11.8° 1010.4 hPa 2.5 m/s 0.0 mm 12.7° 1009.6 hPa 3.8 m/s 88.8 mm 12.2° 1009.9 hPa 1.6 m/s 0.0 mm 13.8° 1010.0 hPa 1.3 m/s 0.0 mm 9.1° 1010.8 hPa 2.3 m/s 11.6° 1011.2 hPa 2.2 m/s
11:00 13.9° 1011.4 hPa 2.3 m/s 13.8 mm 12.4° 1010.4 hPa 3.5 m/s 97.3 mm 15.3° 1011.2 hPa 2.4 m/s 0.0 mm 15.4° 1010.6 hPa 0.3 m/s 0.0 mm 13.9° 1011.7 hPa 2.7 m/s 12.3° 1011.6 hPa 1.4 m/s
14:00 17.3° 1010.4 hPa 2.1 m/s 0.0 mm 17.1° 1010.0 hPa 2.5 m/s 98.7 mm 19.1° 1009.6 hPa 3.2 m/s 0.1 mm 17.0° 1009.7 hPa 1.5 m/s 0.0 mm 18.1° 1010.8 hPa 1.2 m/s 15.4° 1011.5 hPa 0.2 m/s
17:00 16.6° 1009.2 hPa 3.2 m/s 16.0 mm 17.7° 1008.0 hPa 6.2 m/s 98.7 mm 21.2° 1007.6 hPa 3.2 m/s 0.0 mm 17.3° 1008.4 hPa 3.4 m/s 0.0 mm 15.7° 1010.1 hPa 3.2 m/s 16.3° 1009.8 hPa 2.2 m/s
20:00 14.0° 1009.8 hPa 2.6 m/s 0.0 mm 16.0° 1007.4 hPa 4.8 m/s 98.7 mm 14.1° 1010.5 hPa 5.2 m/s 0.1 mm 15.1° 1008.7 hPa 3.6 m/s 0.0 mm 13.2° 1010.2 hPa 1.3 m/s 14.4° 1009.9 hPa 4.4 m/s
23:00 12.8° 1011.4 hPa 2.0 m/s 0.0 mm 14.7° 1009.6 hPa 0.9 m/s 98.7 mm 13.0° 1011.6 hPa 4.3 m/s 0.0 mm 14.5° 1010.4 hPa 2.9 m/s 0.0 mm 12.3° 1011.9 hPa 1.8 m/s 12.7° 1011.9 hPa 2.7 m/s
 07:43     20:27    Daglengte: 12:44 Donderdag 02 Apr
02:00 12.1° 1010.9 hPa 1.7 m/s 0.0 mm 13.1° 1009.7 hPa 3.7 m/s 98.8 mm 12.4° 1011.3 hPa 1.7 m/s 0.0 mm 13.4° 1009.8 hPa 1.4 m/s 0.0 mm 11.7° 1011.5 hPa 1.3 m/s 12.2° 1011.6 hPa 1.1 m/s
05:00 11.7° 1009.6 hPa 2.3 m/s 0.0 mm 12.9° 1009.4 hPa 1.3 m/s 99.0 mm 11.5° 1009.8 hPa 0.6 m/s 0.0 mm 11.7° 1009.6 hPa 2.6 m/s 11.3° 1010.7 hPa 1.7 m/s
08:00 10.9° 1009.6 hPa 3.0 m/s 0.0 mm 12.0° 1009.1 hPa 3.0 m/s 99.3 mm 10.3° 1009.7 hPa 0.8 m/s 0.0 mm 11.1° 1009.7 hPa 4.6 m/s 10.7° 1010.4 hPa 1.0 m/s
11:00 13.7° 1010.5 hPa 5.0 m/s 0.0 mm 14.2° 1010.1 hPa 7.9 m/s 99.7 mm 14.3° 1010.5 hPa 0.7 m/s 0.0 mm 12.7° 1011.0 hPa 5.8 m/s 13.9° 1011.0 hPa 2.0 m/s
14:00 15.1° 1010.4 hPa 5.6 m/s 0.0 mm 15.4° 1010.7 hPa 8.6 m/s 100.0 mm 16.9° 1009.4 hPa 2.2 m/s 0.0 mm 13.8° 1010.7 hPa 6.1 m/s 14.5° 1011.1 hPa 5.7 m/s
17:00 14.3° 1010.0 hPa 5.3 m/s 0.0 mm 15.1° 1009.9 hPa 8.1 m/s 100.0 mm 14.9° 1010.1 hPa 3.4 m/s 0.4 mm 13.7° 1010.2 hPa 5.8 m/s 14.5° 1009.6 hPa 5.0 m/s
20:00 12.6° 1011.5 hPa 2.8 m/s 10.3 mm 13.8° 1010.4 hPa 6.1 m/s 100.3 mm 13.3° 1012.0 hPa 1.9 m/s 1.8 mm 12.5° 1011.6 hPa 2.7 m/s 13.3° 1010.5 hPa 5.3 m/s
23:00 12.0° 1013.6 hPa 1.6 m/s 19.1 mm 13.6° 1012.2 hPa 5.1 m/s 100.8 mm 12.6° 1014.1 hPa 1.4 m/s 0.3 mm 11.9° 1013.8 hPa 0.8 m/s 12.2° 1012.6 hPa 4.7 m/s
 07:42     20:28    Daglengte: 12:46 Vrijdag 03 Apr
02:00 11.4° 1013.7 hPa 1.9 m/s 14.4 mm 13.0° 1011.7 hPa 4.6 m/s 102.9 mm 11.9° 1014.5 hPa 0.4 m/s 0.0 mm 11.2° 1013.8 hPa 1.8 m/s 12.1° 1012.5 hPa 4.0 m/s
05:00 11.1° 1014.1 hPa 2.4 m/s 0.0 mm 12.3° 1011.3 hPa 5.5 m/s 105.9 mm 11.7° 1014.6 hPa 1.6 m/s 0.0 mm 10.4° 1014.3 hPa 2.2 m/s 12.6° 1012.1 hPa 4.3 m/s
08:00 10.5° 1014.8 hPa 2.7 m/s 0.0 mm 12.4° 1012.4 hPa 6.0 m/s 113.3 mm 11.1° 1015.8 hPa 0.9 m/s 0.0 mm 9.6° 1014.9 hPa 2.6 m/s 12.1° 1013.0 hPa 5.1 m/s
11:00 13.4° 1015.8 hPa 3.3 m/s 129.1 mm 14.5° 1014.1 hPa 7.5 m/s 129.1 mm 13.2° 1016.1 hPa 2.5 m/s 14.2° 1014.6 hPa 5.4 m/s
14:00 16.5° 1017.1 hPa 3.1 m/s 129.5 mm 14.9° 1015.6 hPa 6.5 m/s 129.5 mm 16.8° 1017.3 hPa 2.5 m/s 15.2° 1015.8 hPa 5.9 m/s
17:00 14.7° 1016.9 hPa 2.7 m/s 14.7 mm 14.6° 1017.0 hPa 2.4 m/s 15.2° 1014.9 hPa 5.1 m/s 14.7 mm
20:00 13.5° 1016.8 hPa 2.4 m/s 14.7 mm 13.5° 1016.9 hPa 2.4 m/s 13.6° 1015.9 hPa 2.4 m/s 14.7 mm
23:00 11.2° 1018.0 hPa 1.9 m/s 14.7 mm 11.2° 1018.0 hPa 1.9 m/s 12.0° 1018.2 hPa 1.6 m/s 14.7 mm
 07:40     20:29    Daglengte: 12:49 Zaterdag 04 Apr
02:00 9.0° 1019.1 hPa 1.6 m/s 14.7 mm 8.8° 1019.1 hPa 1.5 m/s 10.9° 1018.8 hPa 2.5 m/s 14.7 mm
05:00 8.1° 1019.0 hPa 1.8 m/s 14.7 mm 7.9° 1019.2 hPa 1.9 m/s 10.3° 1017.7 hPa 1.3 m/s 14.7 mm
08:00 7.2° 1019.1 hPa 2.1 m/s 14.7 mm 7.0° 1019.2 hPa 2.2 m/s 9.9° 1018.4 hPa 1.4 m/s 14.7 mm
11:00 12.1° 1019.5 hPa 2.7 m/s 14.7 mm 11.9° 1019.7 hPa 2.8 m/s 13.2° 1018.4 hPa 1.2 m/s 14.7 mm
14:00 16.8° 1020.0 hPa 3.5 m/s 14.7 mm 16.9° 1020.1 hPa 3.4 m/s 15.3° 1018.5 hPa 4.7 m/s 14.7 mm
17:00 15.6° 1020.0 hPa 3.3 m/s 14.8 mm 15.6° 1020.2 hPa 3.2 m/s 15.4° 1017.4 hPa 4.9 m/s 14.8 mm
20:00 14.3° 1020.1 hPa 3.1 m/s 14.9 mm 14.3° 1020.3 hPa 3.0 m/s 14.2° 1017.7 hPa 4.2 m/s 14.9 mm
23:00 13.0° 1021.2 hPa 2.5 m/s 15.5 mm 12.9° 1021.3 hPa 2.4 m/s 13.6° 1019.8 hPa 3.8 m/s 15.5 mm
 07:39     20:29    Daglengte: 12:50 Zondag 05 Apr
02:00 11.6° 1022.1 hPa 1.9 m/s 16.1 mm 11.5° 1022.3 hPa 1.7 m/s 13.1° 1019.6 hPa 4.0 m/s 16.1 mm
05:00 11.8° 1022.2 hPa 1.9 m/s 16.3 mm 11.7° 1022.6 hPa 1.8 m/s 12.6° 1018.1 hPa 2.9 m/s 16.3 mm
08:00 12.0° 1022.5 hPa 2.0 m/s 16.4 mm 11.9° 1022.9 hPa 1.9 m/s 12.6° 1018.5 hPa 2.9 m/s 16.4 mm
11:00 13.8° 1023.2 hPa 2.8 m/s 16.5 mm 13.8° 1023.6 hPa 2.5 m/s 14.0° 1018.9 hPa 5.1 m/s 16.5 mm
14:00 15.4° 1023.9 hPa 3.3 m/s 17.1 mm 15.6° 1024.3 hPa 3.2 m/s 13.3° 1019.1 hPa 3.9 m/s 17.1 mm
17:00 14.6° 1023.6 hPa 2.5 m/s 17.1 mm 14.6° 1024.1 hPa 2.5 m/s 13.9° 1017.8 hPa 2.8 m/s 17.1 mm
20:00 13.7° 1023.4 hPa 1.7 m/s 17.1 mm 13.7° 1023.9 hPa 1.8 m/s 13.6° 1017.6 hPa 1.1 m/s 17.1 mm
23:00 12.0° 1024.5 hPa 1.8 m/s 17.1 mm 12.0° 1025.0 hPa 1.8 m/s 12.4° 1018.9 hPa 2.1 m/s 17.1 mm
 07:37     20:30    Daglengte: 12:53 Maandag 06 Apr
02:00 10.5° 1025.5 hPa 1.7 m/s 17.2 mm 10.3° 1026.1 hPa 1.7 m/s 12.2° 1019.0 hPa 1.8 m/s 17.2 mm
05:00 9.7° 1025.4 hPa 1.5 m/s 17.6 mm 9.5° 1026.1 hPa 1.4 m/s 11.8° 1017.8 hPa 1.7 m/s 17.6 mm
08:00 8.9° 1025.4 hPa 1.2 m/s 17.6 mm 8.7° 1026.1 hPa 1.2 m/s 11.6° 1018.1 hPa 1.4 m/s 17.6 mm
11:00 12.7° 1026.1 hPa 2.0 m/s 17.6 mm 12.5° 1026.8 hPa 2.1 m/s 15.0° 1018.7 hPa 1.0 m/s 17.6 mm
14:00 16.4° 1026.7 hPa 3.0 m/s 17.6 mm 16.3° 1027.4 hPa 3.0 m/s 17.7° 1018.7 hPa 2.9 m/s 17.6 mm
17:00 15.2° 1026.3 hPa 2.7 m/s 17.6 mm 15.1° 1027.1 hPa 2.5 m/s 17.0° 1017.6 hPa 5.1 m/s 17.6 mm
20:00 14.0° 1026.1 hPa 1.9 m/s 17.7 mm 13.8° 1026.8 hPa 1.9 m/s 16.0° 1017.9 hPa 2.3 m/s 17.7 mm
23:00 12.9° 1026.8 hPa 1.7 m/s 17.7 mm 12.7° 1027.5 hPa 1.8 m/s 15.4° 1019.1 hPa 0.5 m/s 17.7 mm
 07:36     20:31    Daglengte: 12:55 Dinsdag 07 Apr
02:00 11.9° 1027.5 hPa 1.6 m/s 17.8 mm 11.6° 1028.3 hPa 1.7 m/s 15.3° 1019.0 hPa 1.0 m/s 17.8 mm
05:00 12.3° 1027.2 hPa 1.3 m/s 17.8 mm 11.9° 1028.0 hPa 1.3 m/s 16.0° 1017.6 hPa 1.8 m/s 17.8 mm
08:00 12.6° 1027.0 hPa 1.1 m/s 17.9 mm 12.3° 1027.8 hPa 0.9 m/s 15.5° 1017.8 hPa 3.7 m/s 17.9 mm
11:00 14.5° 1027.3 hPa 2.6 m/s 17.9 mm 13.9° 1028.2 hPa 2.3 m/s 20.7° 1018.2 hPa 5.7 m/s 17.9 mm
14:00 16.2° 1027.6 hPa 3.9 m/s 17.9 mm 15.6° 1028.5 hPa 3.7 m/s 23.3° 1017.7 hPa 6.6 m/s 17.9 mm
20:00 14.7° 1025.6 hPa 1.7 m/s 17.9 mm 14.1° 1026.5 hPa 1.6 m/s 20.9° 1015.7 hPa 3.3 m/s 17.9 mm
 07:34     20:32    Daglengte: 12:58 Woensdag 08 Apr
02:00 11.1° 1026.6 hPa 1.5 m/s 17.9 mm 10.5° 1027.3 hPa 1.5 m/s 17.3° 1018.6 hPa 1.5 m/s 17.9 mm
08:00 12.0° 1024.9 hPa 1.4 m/s 17.9 mm 11.8° 1025.5 hPa 1.4 m/s 14.1° 1018.0 hPa 1.1 m/s 17.9 mm
14:00 14.2° 1026.2 hPa 1.2 m/s 17.9 mm 14.0° 1026.9 hPa 0.9 m/s 17.0° 1018.1 hPa 3.9 m/s 17.9 mm
20:00 14.0° 1026.5 hPa 1.7 m/s 19.4 mm 13.9° 1027.3 hPa 1.6 m/s 15.4° 1017.1 hPa 2.5 m/s 19.4 mm
 07:33     20:33    Daglengte: 13:00 Donderdag 09 Apr
02:00 12.3° 1027.6 hPa 1.3 m/s 20.0 mm 12.0° 1028.4 hPa 1.2 m/s 15.1° 1018.9 hPa 2.2 m/s 20.0 mm
08:00 10.8° 1025.7 hPa 1.2 m/s 20.1 mm 10.5° 1026.4 hPa 1.1 m/s 14.7° 1018.3 hPa 2.1 m/s 20.1 mm
14:00 18.9° 1024.7 hPa 2.9 m/s 20.1 mm 19.1° 1025.2 hPa 2.8 m/s 16.1° 1019.3 hPa 3.7 m/s 20.1 mm
20:00 15.9° 1021.6 hPa 1.3 m/s 20.2 mm 15.9° 1021.9 hPa 1.3 m/s 15.4° 1018.4 hPa 1.9 m/s 20.2 mm
 07:31     20:34    Daglengte: 13:03 Vrijdag 10 Apr
02:00 13.9° 1020.4 hPa 1.0 m/s 20.2 mm 13.9° 1020.4 hPa 1.0 m/s 20.2 mm
08:00 13.6° 1018.1 hPa 2.1 m/s 0.1 mm
14:00 19.4° 1018.4 hPa 0.8 m/s 0.1 mm
20:00 17.9° 1017.2 hPa 2.1 m/s 0.2 mm
 07:30     20:35    Daglengte: 13:05 Zaterdag 11 Apr
02:00 14.4° 1019.1 hPa 2.3 m/s 0.0 mm
08:00 13.3° 1018.6 hPa 2.6 m/s 0.0 mm
14:00 19.4° 1018.5 hPa 1.1 m/s 0.0 mm
20:00 18.0° 1017.0 hPa 1.9 m/s 0.0 mm
 07:28     20:36    Daglengte: 13:08 Zondag 12 Apr
02:00 14.5° 1019.2 hPa 2.4 m/s 0.0 mm
08:00 13.2° 1019.1 hPa 2.1 m/s 0.3 mm
14:00 18.4° 1019.4 hPa 1.8 m/s 0.3 mm
20:00 17.1° 1017.9 hPa 3.6 m/s 0.0 mm
 07:27     20:37    Daglengte: 13:10 Maandag 13 Apr
02:00 14.1° 1019.4 hPa 1.5 m/s 0.0 mm
08:00 13.3° 1018.6 hPa 1.8 m/s 0.0 mm
14:00 19.4° 1018.1 hPa 1.5 m/s 0.0 mm
20:00 17.9° 1016.6 hPa 2.2 m/s 0.2 mm
 07:25     20:38    Daglengte: 13:13 Dinsdag 14 Apr
02:00 14.6° 1017.8 hPa 1.5 m/s 0.0 mm
08:00 13.9° 1017.4 hPa 2.0 m/s 0.1 mm
14:00 19.3° 1017.4 hPa 1.9 m/s 0.4 mm
20:00 17.9° 1015.9 hPa 2.2 m/s 0.3 mm
 07:24     20:39    Daglengte: 13:15 Woensdag 15 Apr
02:00 14.6° 1017.1 hPa 1.7 m/s 0.1 mm
08:00 13.5° 1016.6 hPa 2.1 m/s 0.3 mm
FMI Hirlam - 7.5 km EWN WRFDA - 12 km DWD ICON - 7 km GFS - 25 km Basiskaart






























































Updatetijd (Europe/Amsterdam) Resolutie Lengte Stap
FMI Hirlam 07:00, 13:00, 19:00, 01:00 7.5 km 49h 1h
EWN WRFDA 09:30, 15:30, 21:30, 03:30 12 km 73h 1h
DWD ICON 05:45, 11:45, 17:45, 23:45 7 km 75h 1h
GFS 08:00, 14:00, 20:00, 02:00 25 km 237h 3h
30+ mm
25-30 mm
20-25 mm
15-20 mm
10-15 mm
6-10 mm
4-6 mm
2-4 mm
1-2 mm
0.5-1 mm
0.2-0.5 mm
0.1-0.2 mm
30+ mm
25-30 mm
20-25 mm
15-20 mm
10-15 mm
6-10 mm
4-6 mm
2-4 mm
1-2 mm
0.5-1 mm
0.2-0.5 mm
0.1-0.2 mm
Sneeuwval
Natte sneeuw
Hagel
Vorst
30+ mm
25-30 mm
20-25 mm
15-20 mm
10-15 mm
6-10 mm
4-6 mm
2-4 mm
1-2 mm
0.5-1 mm
0.2-0.5 mm
0.1-0.2 mm
Sneeuwval
Natte sneeuw
Hagel
Vorst
Onweer
50 mm
40 mm
30 mm
26 mm
22 mm
18 mm
14 mm
10 mm
9 mm
8 mm
7 mm
6 mm
5 mm
4.5 mm
4 mm
3.5 mm
3 mm
2.5 mm
2 mm
1.5 mm
1 mm
0.8 mm
0.6 mm
0.4 mm
0.2 mm
0.05 mm
35°
30°
25°
20°
15°
10°
-5°
-10°
-15°
-20°
-25°
-30°
-35°
120> km/h
105 km/h
90 km/h
75 km/h
60 km/h
50 km/h
40 km/h
30 km/h
20 km/h
10 km/h
0 km/h
2600 J/kg
2400 J/kg
2200 J/kg
2000 J/kg
1800 J/kg
1600 J/kg
1400 J/kg
1200 J/kg
1000 J/kg
800 J/kg
600 J/kg
400 J/kg
200 J/kg
70 dBZ
65 dBZ
60 dBZ
55 dBZ
50 dBZ
45 dBZ
40 dBZ
35 dBZ
30 dBZ
25 dBZ
20 dBZ
15 dBZ
10 dBZ
5 dBZ
-1 K
-2 K
-3 K
-4 K
-5 K
-6 K
-7 K
-8 K
-9 K
950 m²/s²
900 m²/s²
850 m²/s²
800 m²/s²
750 m²/s²
700 m²/s²
650 m²/s²
600 m²/s²
550 m²/s²
500 m²/s²
450 m²/s²
400 m²/s²
350 m²/s²
300 m²/s²
250 m²/s²
200 m²/s²
150 m²/s²
100 m²/s²
46 m/s
44 m/s
42 m/s
40 m/s
38 m/s
36 m/s
34 m/s
32 m/s
30 m/s
28 m/s
26 m/s
24 m/s
22 m/s
20 m/s
16 m/s
12 m/s
8 m/s
4 m/s
30 m/s
28 m/s
26 m/s
24 m/s
22 m/s
20 m/s
18 m/s
16 m/s
14 m/s
12 m/s
10 m/s
8 m/s
6 m/s
4 m/s
2 m/s
3.0
2.8
2.6
2.4
2.2
2.0
1.8
1.6
1.4
1.2
1.0
0.8
0.6
0.4
0.2
15
14
13
12
11
10
9
8
7
6
5
4
3
2
1
90%
80%
70%
60%
50%
40%
30%
20%
10%
42
40
38
36
34
32
30
28
26
24
22
20
18
16
14
12
90+ cm
80-90 cm
70-80 cm
60-70 cm
50-60 cm
40-50 cm
30-40 cm
20-30 cm
10-20 cm
1-10 cm
Sneeuwval
Natte sneeuw
Regen
>120 mm
115 mm
110 mm
105 mm
100 mm
95 mm
90 mm
85 mm
80 mm
75 mm
70 mm
65 mm
60 mm
55 mm
50 mm
45 mm
45 mm
40 mm
35 mm
30 mm
25 mm
20 mm
15 mm
10 mm
5 mm
0.1 mm
960 hPa
880 hPa
800 hPa
720 hPa
640 hPa
560 hPa
584 gpdm
568 gpdm
552 gpdm
536 gpdm
520 gpdm
504 gpdm
488 gpdm
Extreem zwaar Noodweer Kans op onweer
15% 15% 5% 50% 15%

Dag




Kaart






35°
30°
25°
20°
15°
10°
-5°
-10°
-15°
-20°
-25°
-30°
-35°
120> km/h
105 km/h
90 km/h
75 km/h
60 km/h
50 km/h
40 km/h
30 km/h
20 km/h
10 km/h
0 km/h
Extreem zwaar Noodweer Kans op onweer
15% 15% 5% 50% 15%
>120 mm
115 mm
110 mm